This is the latest recevied weather packets stored in our database for station/object KB7STN. If no packets are shown the sender has not sent any weather packets the latest 10 day(s).
| Time | Temp. | Humidity | Pressure | Rain* | Wind** | Luminosity | Snow |
|---|---|---|---|---|---|---|---|
| 1788123395 | 25° C | 49% | 1020.9 hPa | 0 mm | - | - | - |
| 1788123095 | 25° C | 49% | 1020.9 hPa | 0 mm | - | - | - |
| 1788122795 | 25° C | 51% | 1021 hPa | 0 mm | - | - | - |
| 1788122495 | 25.56° C | 51% | 1021 hPa | 0 mm | - | - | - |
| 1788122195 | 25.56° C | 49% | 1021.2 hPa | 0 mm | - | - | - |
| 1788121895 | 26.11° C | 48% | 1021.2 hPa | 0 mm | - | - | - |
| 1788121595 | 26.11° C | 49% | 1021.3 hPa | 0 mm | - | - | - |
| 1788121295 | 26.11° C | 49% | 1021.4 hPa | 0 mm | - | - | - |
| 1788120995 | 26.11° C | 52% | 1021.2 hPa | 0 mm | - | - | - |
| 1788120695 | 25.56° C | 52% | 1021.4 hPa | 0 mm | - | - | - |
| 1788120395 | 25.56° C | 52% | 1021.4 hPa | 0 mm | - | - | - |
| 1788120104 | 25° C | 52% | 1021.5 hPa | 0 mm | - | - | - |
| 1788119795 | 25° C | 54% | 1021.5 hPa | 0 mm | - | - | - |
| 1788119495 | 25° C | 55% | 1021.6 hPa | 0 mm | - | - | - |
| 1788119195 | 25° C | 54% | 1021.7 hPa | 0 mm | - | - | - |
| 1788118895 | 25° C | 54% | 1021.7 hPa | 0 mm | - | - | - |
| 1788118595 | 25° C | 54% | 1021.7 hPa | 0 mm | - | - | - |
| 1788118295 | 24.44° C | 54% | 1021.8 hPa | 0 mm | - | - | - |
| 1788117995 | 24.44° C | 54% | 1021.8 hPa | 0 mm | - | - | - |
| 1788117708 | 24.44° C | 57% | 1021.9 hPa | 0 mm | - | - | - |
| 1788117395 | 24.44° C | 55% | 1022 hPa | 0 mm | - | - | - |
| 1788117095 | 24.44° C | 55% | 1022.1 hPa | 0 mm | - | - | - |
| 1788116795 | 24.44° C | 57% | 1022.1 hPa | 0 mm | - | - | - |
| 1788116495 | 23.89° C | 57% | 1022.3 hPa | 0 mm | - | - | - |
| 1788116195 | 23.89° C | 58% | 1022.3 hPa | 0 mm | - | - | - |
* Rain latest hour (hover to see other rain measurements)
** Current wind speed in m/s (hover to see current wind gust speed)